Tiempo cada hora Gogolow

Hoy, 28 Noviembre, Sábado

Tiempo Temperatura Precipitaciones Viento Presión Humedad
00:00 +4°C° 0 mm 1 mps 744 mmHg 90%
01:00 +4°C° 0 mm 1 mps 744 mmHg 91%
02:00 +4°C° 0 mm 1 mps 744 mmHg 90%
03:00 +2°C° 0 mm 2 mps 744 mmHg 89%
04:00 +2°C° 0 mm 2 mps 744 mmHg 88%
05:00 +2°C° 0 mm 2 mps 744 mmHg 88%
06:00 +2°C° 0 mm 2 mps 744 mmHg 87%
07:00 +2°C° 0 mm 2 mps 744 mmHg 87%
08:00 +2°C° 0 mm 2 mps 744 mmHg 86%
09:00 +2°C° 0 mm 2 mps 745 mmHg 85%
10:00 +2°C° 0 mm 2 mps 745 mmHg 84%
11:00 +2°C° 0 mm 2 mps 745 mmHg 82%
12:00 +3°C° 0 mm 2 mps 745 mmHg 80%
13:00 +2°C° 0 mm 3 mps 745 mmHg 77%
14:00 +2°C° 0 mm 3 mps 745 mmHg 79%
15:00 +2°C° 0 mm 2 mps 745 mmHg 81%
16:00 +2°C° 0 mm 2 mps 744 mmHg 83%
17:00 +2°C° 0 mm 2 mps 745 mmHg 85%
18:00 +1°C° 0 mm 2 mps 745 mmHg 87%
19:00 +1°C° 0 mm 2 mps 745 mmHg 88%
20:00 +1°C° 0 mm 2 mps 745 mmHg 88%
21:00 -1°C° 0 mm 2 mps 745 mmHg 89%
22:00 -1°C° 0 mm 2 mps 745 mmHg 89%
23:00 -1°C° 0 mm 2 mps 745 mmHg 89%

Mañana, 29 Noviembre, Domingo

Tiempo Temperatura Precipitaciones Viento Presión Humedad
00:00 -1°C° 0 mm 2 mps 745 mmHg 89%
01:00 -1°C° 0 mm 3 mps 745 mmHg 89%
02:00 -1°C° 0.1 mm 3 mps 744 mmHg 91%
03:00 -1°C° 0.1 mm 3 mps 744 mmHg 94%
04:00 -1°C° 0.1 mm 3 mps 744 mmHg 96%
05:00 -1°C° 0.3 mm 3 mps 744 mmHg 96%
06:00 -1°C° 0.3 mm 3 mps 744 mmHg 96%
07:00 0°C° 0.3 mm 3 mps 744 mmHg 97%
08:00 +1°C° 0.3 mm 2 mps 744 mmHg 96%
09:00 +1°C° 0.3 mm 2 mps 744 mmHg 95%
10:00 +1°C° 0.3 mm 2 mps 744 mmHg 94%
11:00 +1°C° 0.1 mm 2 mps 744 mmHg 93%
12:00 +2°C° 0.1 mm 1 mps 744 mmHg 93%
13:00 +2°C° 0.1 mm 1 mps 744 mmHg 92%
14:00 +1°C° 0.3 mm 2 mps 744 mmHg 94%
15:00 +1°C° 0.3 mm 2 mps 744 mmHg 95%
16:00 +1°C° 0.3 mm 2 mps 744 mmHg 97%
17:00 +1°C° 0.4 mm 2 mps 744 mmHg 96%
18:00 -1°C° 0.4 mm 2 mps 744 mmHg 96%
19:00 -1°C° 0.4 mm 3 mps 745 mmHg 96%
20:00 -1°C° 0.1 mm 2 mps 745 mmHg 95%
21:00 0°C° 0.1 mm 1 mps 745 mmHg 95%
22:00 -1°C° 0.1 mm 1 mps 745 mmHg 95%
23:00 -1°C° 0 mm 1 mps 745 mmHg 94%

Pasado mañana, 30 Noviembre, Lunes

Tiempo Temperatura Precipitaciones Viento Presión Humedad
00:00 -1°C° 0 mm 1 mps 745 mmHg 94%
01:00 -1°C° 0 mm 1 mps 745 mmHg 94%
02:00 -1°C° 0 mm 1 mps 745 mmHg 94%
03:00 -1°C° 0 mm 1 mps 745 mmHg 94%
04:00 -1°C° 0 mm 1 mps 745 mmHg 94%
05:00 0°C° 0.1 mm 1 mps 746 mmHg 95%
06:00 0°C° 0.1 mm 1 mps 746 mmHg 96%
07:00 0°C° 0.1 mm 1 mps 746 mmHg 97%
08:00 +1°C° 0.1 mm 1 mps 746 mmHg 96%
09:00 +1°C° 0.1 mm 1 mps 747 mmHg 95%
10:00 +2°C° 0.1 mm 1 mps 747 mmHg 94%
11:00 +2°C° 0.1 mm 1 mps 747 mmHg 92%
12:00 +1°C° 0.1 mm 2 mps 747 mmHg 90%
13:00 +1°C° 0.1 mm 2 mps 747 mmHg 88%
14:00 +1°C° 0 mm 2 mps 747 mmHg 89%
15:00 +1°C° 0 mm 1 mps 746 mmHg 89%
16:00 +1°C° 0 mm 1 mps 746 mmHg 89%
17:00 +1°C° 0 mm 1 mps 746 mmHg 89%
18:00 +1°C° 0 mm 1 mps 746 mmHg 89%
19:00 +1°C° 0 mm 1 mps 746 mmHg 89%
20:00 -1°C° 0 mm 2 mps 746 mmHg 89%
21:00 -2°C° 0 mm 2 mps 746 mmHg 89%
22:00 -2°C° 0 mm 2 mps 746 mmHg 89%
23:00 -2°C° 0 mm 2 mps 745 mmHg 89%

1 Diciembre, Martes

Tiempo Temperatura Precipitaciones Viento Presión Humedad
00:00 -2°C° 0 mm 3 mps 745 mmHg 88%
01:00 -4°C° 0 mm 3 mps 745 mmHg 88%
02:00 -4°C° 0 mm 3 mps 744 mmHg 88%
03:00 -4°C° 0 mm 3 mps 744 mmHg 88%
04:00 -4°C° 0 mm 3 mps 743 mmHg 88%
05:00 -4°C° 0 mm 3 mps 743 mmHg 88%
06:00 -4°C° 0 mm 3 mps 743 mmHg 89%
07:00 -4°C° 0 mm 3 mps 743 mmHg 89%
08:00 -2°C° 0 mm 3 mps 743 mmHg 86%
09:00 -3°C° 0 mm 4 mps 743 mmHg 83%
10:00 -2°C° 0 mm 4 mps 743 mmHg 81%
11:00 -2°C° 0 mm 4 mps 743 mmHg 79%
12:00 -1°C° 0 mm 4 mps 743 mmHg 78%
13:00 -1°C° 0 mm 4 mps 742 mmHg 76%
14:00 -1°C° 0 mm 3 mps 742 mmHg 79%
15:00 -1°C° 0 mm 3 mps 742 mmHg 81%
16:00 -2°C° 0 mm 3 mps 742 mmHg 84%
17:00 -2°C° 0 mm 3 mps 742 mmHg 84%
18:00 -2°C° 0 mm 2 mps 743 mmHg 84%
19:00 -3°C° 0 mm 2 mps 743 mmHg 85%
20:00 -3°C° 0 mm 2 mps 743 mmHg 85%
21:00 -3°C° 0 mm 2 mps 743 mmHg 86%
22:00 -3°C° 0 mm 2 mps 744 mmHg 86%
23:00 -4°C° 0 mm 2 mps 744 mmHg 86%

2 Diciembre, Miércoles

Tiempo Temperatura Precipitaciones Viento Presión Humedad
00:00 -4°C° 0 mm 2 mps 744 mmHg 86%
01:00 -4°C° 0 mm 2 mps 744 mmHg 86%
02:00 -4°C° 0 mm 2 mps 744 mmHg 86%
03:00 -2°C° 0 mm 1 mps 744 mmHg 86%
04:00 -2°C° 0 mm 1 mps 744 mmHg 86%
05:00 -2°C° 0 mm 1 mps 744 mmHg 86%
06:00 -2°C° 0 mm 1 mps 744 mmHg 85%
07:00 -3°C° 0 mm 1 mps 744 mmHg 85%
08:00 -2°C° 0 mm 1 mps 744 mmHg 81%
09:00 -1°C° 0 mm 1 mps 744 mmHg 78%
10:00 0°C° 0 mm 1 mps 744 mmHg 74%
11:00 +1°C° 0 mm 1 mps 744 mmHg 72%
12:00 +1°C° 0 mm 1 mps 744 mmHg 69%
13:00 +2°C° 0 mm 1 mps 743 mmHg 67%
14:00 +1°C° 0 mm 1 mps 743 mmHg 71%
15:00 0°C° 0 mm 1 mps 743 mmHg 76%
16:00 -1°C° 0 mm 1 mps 743 mmHg 80%
17:00 -1°C° 0 mm 1 mps 743 mmHg 80%
18:00 -2°C° 0 mm 1 mps 743 mmHg 81%
19:00 -4°C° 0 mm 2 mps 743 mmHg 81%
20:00 -4°C° 0 mm 2 mps 743 mmHg 80%
21:00 -4°C° 0 mm 2 mps 743 mmHg 80%
22:00 -4°C° 0 mm 2 mps 743 mmHg 80%
23:00 -2°C° 0 mm 1 mps 743 mmHg 79%

3 Diciembre, Jueves

Tiempo Temperatura Precipitaciones Viento Presión Humedad
00:00 -2°C° 0 mm 1 mps 743 mmHg 79%
01:00 -2°C° 0 mm 1 mps 742 mmHg 79%
02:00 -2°C° 0 mm 1 mps 742 mmHg 79%
03:00 -2°C° 0 mm 1 mps 742 mmHg 79%
04:00 -2°C° 0 mm 1 mps 742 mmHg 78%
05:00 -4°C° 0 mm 2 mps 742 mmHg 78%
06:00 -4°C° 0 mm 2 mps 742 mmHg 77%
07:00 -4°C° 0 mm 2 mps 741 mmHg 77%
08:00 -3°C° 0 mm 2 mps 741 mmHg 74%
09:00 -3°C° 0 mm 2 mps 741 mmHg 70%
10:00 -2°C° 0 mm 2 mps 741 mmHg 67%
11:00 -1°C° 0 mm 2 mps 741 mmHg 66%
12:00 +1°C° 0 mm 2 mps 740 mmHg 65%
13:00 +1°C° 0 mm 2 mps 739 mmHg 64%
14:00 -1°C° 0 mm 2 mps 739 mmHg 68%
15:00 -2°C° 0 mm 2 mps 738 mmHg 73%
16:00 -2°C° 0 mm 2 mps 738 mmHg 77%
17:00 -3°C° 0 mm 2 mps 738 mmHg 77%
18:00 -3°C° 0 mm 2 mps 737 mmHg 78%
19:00 -3°C° 0 mm 2 mps 737 mmHg 78%
20:00 -3°C° 0 mm 2 mps 736 mmHg 78%
21:00 -3°C° 0 mm 2 mps 736 mmHg 79%
22:00 -3°C° 0 mm 2 mps 735 mmHg 79%
23:00 -3°C° 0 mm 2 mps 735 mmHg 79%
Mostrar más

Necesitamos Su Consentimiento

Meteoprog y nuestros Proveedores de Servicios pueden almacenar y acceder a sus datos personales como cookies, identificadores de dispositivo u otras tecnologías similares de su dispositivo y procesar dichos datos para personalizar contenido y anuncios, además de ofrecer funciones de redes sociales y analizar el tráfico.

  • Almacenar y/o acceder a información en su dispositivo

    Se puede almacenar o acceder a cookies, identificadores de dispositivo u otra información de su dispositivo para los fines anteriormente indicados.

  • Anuncios y contenido personalizados, medición de anuncios y contenido, percepciones del público, y desarrollo de productos

    Los anuncios y el contenido pueden personalizarse en base a su perfil. Se pueden añadir más datos para personalizar mejor los anuncios y contenidos. Se puede medir el rendimiento de los anuncios y contenidos. Se puede obtener la percepción sobre el público que ha visto los anuncios y contenidos. Dichos datos pueden usarse para desarrollar o mejorar la experiencia del usuario, sistemas y software.

Al hacer clic en ‘Estoy De Acuerdo’ usted permitirá el uso de las cookies, identificadores de dispositivo, balizas web u otras tecnologías similares indicadas. Su configuración puede cambiarse desde el navegador de su dispositivo.

Para ciertos fines, los intereses legítimos pueden ser considerados por encima del consentimiento. Puede leer más sobre ello en nuestra Política de Privacidad y Cookies.